EW4676 Weather Reports


time (UTC)temp
C
wind
direction
speed
KPH
gust
KPH
rain 1hr
cm
rain 24hr
cm
rain mn
cm
humidity
%
barometer
mb
20260506051024 18 288 8.0 17.7 0.00 0.00 0.00 70 1009.2
20260506050514 18 12 6.4 14.5 0.00 0.00 0.00 70 1009.1
20260506044453 19 6 8.0 19.3 0.00 0.00 0.00 69 1008.9
20260506043951 19 357 9.7 19.3 0.00 0.00 0.00 69 1008.9
20260506043946 19 28 9.7 25.7 0.00 0.00 0.00 69 1009.0
20260506042937 19 332 11.3 25.7 0.00 0.00 0.00 69 1009.1
20260506042428 19 53 11.3 25.7 0.00 0.00 0.00 69 1009.0
20260506041914 20 25 11.3 25.7 0.00 0.00 0.00 68 1009.0
20260506041409 20 20 8.0 20.9 0.00 0.00 0.00 68 1008.9
20260506040906 20 6 8.0 17.7 0.00 0.00 0.00 68 1008.8
20260506040402 20 320 6.4 17.7 0.00 0.00 0.00 68 1008.8
20260506035850 20 7 4.8 14.5 0.00 0.00 0.00 68 1008.7
20260506035345 20 338 8.0 19.3 0.00 0.00 0.00 68 1008.4
20260506034839 20 10 9.7 19.3 0.00 0.00 0.00 68 1008.0
20260506034330 20 22 11.3 22.5 0.00 0.00 0.00 68 1008.3
20260506033825 20 13 11.3 22.5 0.00 0.00 0.00 67 1008.3
20260506033818 20 24 9.7 19.3 0.00 0.00 0.00 67 1008.2
20260506032806 20 28 11.3 22.5 0.00 0.00 0.00 66 1008.0
20260506032754 21 10 11.3 20.9 0.00 0.00 0.00 65 1007.8
20260506032359 20 6 11.3 22.5 0.00 0.00 0.00 65 1007.9
20260506031241 21 42 9.7 17.7 0.00 0.00 0.00 64 1007.7
20260506030733 21 0 8.0 17.7 0.00 0.00 0.00 63 1007.9
20260506030225 21 39 9.7 22.5 0.00 0.00 0.00 63 1007.6
20260506030218 21 44 9.7 22.5 0.00 0.00 0.00 63 1007.6
20260506025207 21 313 9.7 22.5 0.00 0.00 0.00 64 1007.7
20260506024657 21 12 8.0 22.5 0.00 0.00 0.00 64 1007.5
20260506024146 21 355 8.0 22.5 0.00 0.00 0.00 64 1007.4
20260506023636 21 48 11.3 22.5 0.00 0.00 0.00 64 1007.3
20260506023631 22 29 11.3 27.4 0.00 0.00 0.00 64 1007.2
20260506022115 22 8 9.7 19.3 0.00 0.00 0.00 63 1006.9
20260506022107 22 7 9.7 19.3 0.00 0.00 0.00 63 1006.8
20260506021056 22 325 11.3 22.5 0.00 0.00 0.00 64 1006.7
20260506021046 22 7 9.7 22.5 0.00 0.00 0.00 63 1006.5
20260506020036 23 5 8.0 17.7 0.00 0.00 0.00 62 1006.1
20260506015527 23 351 9.7 17.7 0.00 0.00 0.00 62 1006.1
20260506015030 23 37 8.0 17.7 0.00 0.00 0.00 62 1005.9
20260506015026 23 9 9.7 17.7 0.00 0.00 0.00 62 1005.7
20260506014026 23 53 6.4 17.7 0.00 0.00 0.00 62 1006.0
20260506013516 23 32 8.0 17.7 0.00 0.00 0.00 61 1005.7
20260506013007 24 40 9.7 20.9 0.00 0.00 0.00 61 1005.7
20260506012446 24 23 9.7 24.1 0.00 0.00 0.00 61 1005.3
20260506011946 24 9 9.7 24.1 0.00 0.00 0.00 60 1005.2
20260506011436 25 30 11.3 29.0 0.00 0.00 0.00 60 1005.2
20260506010926 25 41 11.3 29.0 0.00 0.00 0.00 60 1005.4
20260506010416 25 27 9.7 17.7 0.00 0.00 0.00 59 1005.4
20260506005905 25 17 9.7 17.7 0.00 0.00 0.00 58 1005.3
20260506005356 26 35 8.0 17.7 0.00 0.00 0.00 58 1005.1
20260506004846 26 352 6.4 16.1 0.00 0.00 0.00 58 1005.0
20260506004336 26 15 6.4 17.7 0.00 0.00 0.00 58 1004.7
20260506003826 26 349 8.0 17.7 0.00 0.00 0.00 58 1004.9
20260506003316 26 13 9.7 19.3 0.00 0.00 0.00 57 1004.9
20260506002806 26 15 9.7 19.3 0.00 0.00 0.00 56 1004.8
20260506002256 27 26 8.0 19.3 0.00 0.00 0.00 56 1004.7
20260506001746 27 28 8.0 19.3 0.00 0.00 0.00 55 1004.7
20260506001236 27 349 8.0 24.1 0.00 0.00 0.00 54 1004.6
20260506000726 28 329 6.4 24.1 0.00 0.00 0.00 55 1004.7
20260506000219 28 354 6.4 16.1 0.00 0.00 0.00 56 1004.6
20260506000207 28 15 9.7 19.3 0.00 0.00 0.00 54 1004.6
20260505235656 28 1 9.7 19.3 0.00 0.00 0.00 53 1004.4
20260505234645 29 22 6.4 17.7 0.00 0.00 0.00 52 1004.3
20260505234136 29 38 6.4 20.9 0.00 0.00 0.00 52 1004.3
20260505233626 30 26 6.4 20.9 0.00 0.00 0.00 51 1004.1
20260505233116 30 10 8.0 17.7 0.00 0.00 0.00 50 1004.0
20260505232606 30 17 8.0 17.7 0.00 0.00 0.00 49 1003.9
20260505232106 30 359 6.4 16.1 0.00 0.00 0.00 50 1003.9
20260505231556 30 359 6.4 16.1 0.00 0.00 0.00 51 1003.8
20260505231056 30 354 6.4 16.1 0.00 0.00 0.00 49 1003.7
20260505230546 30 355 4.8 14.5 0.00 0.00 0.00 50 1003.6
20260505230537 30 23 4.8 14.5 0.00 0.00 0.00 59 1003.7
20260505230026 31 188 4.8 16.1 0.00 0.00 0.00 57 1003.5
20260505225016 31 189 3.2 12.9 0.00 0.00 0.00 57 1003.3
20260505224959 32 236 1.6 8.0 0.00 0.00 0.00 47 1003.2
20260505224602 31 230 3.2 8.0 0.00 0.00 0.00 51 1003.2
20260505223446 31 262 1.6 8.0 0.00 0.00 0.00 48 1003.2
20260505222936 32 163 3.2 11.3 0.00 0.00 0.00 46 1003.1
20260505222424 32 299 3.2 11.3 0.00 0.00 0.00 46 1003.1
20260505221914 32 313 3.2 14.5 0.00 0.00 0.00 46 1003.1
20260505221402 32 281 3.2 14.5 0.00 0.00 0.00 46 1002.9
20260505220852 32 202 4.8 14.5 0.00 0.00 0.00 49 1002.9
20260505220342 32 286 4.8 14.5 0.00 0.00 0.00 49 1003.0
20260505215832 32 195 4.8 12.9 0.00 0.00 0.00 50 1003.0
20260505215323 32 232 3.2 12.9 0.00 0.00 0.00 52 1003.1
20260505214812 32 243 4.8 11.3 0.00 0.00 0.00 51 1003.0
20260505214302 32 214 6.4 17.7 0.00 0.00 0.00 51 1003.2
20260505214253 32 293 6.4 17.7 0.00 0.00 0.00 50 1003.2
20260505213242 32 247 4.8 14.5 0.00 0.00 0.00 52 1003.2
20260505212732 31 199 6.4 17.7 0.00 0.00 0.00 51 1003.2
20260505212222 31 169 6.4 19.3 0.00 0.00 0.00 52 1003.3
20260505211713 32 226 6.4 19.3 0.00 0.00 0.00 51 1003.4
20260505211202 32 240 6.4 17.7 0.00 0.00 0.00 51 1003.4
20260505211154 32 188 6.4 17.7 0.00 0.00 0.00 51 1003.5
20260505210142 31 251 6.4 16.1 0.00 0.00 0.00 53 1003.6
20260505205631 31 262 6.4 16.1 0.00 0.00 0.00 54 1003.8
20260505205124 31 207 6.4 25.7 0.00 0.00 0.00 52 1003.9
20260505204614 32 302 6.4 25.7 0.00 0.00 0.00 52 1003.8
20260505204109 31 240 4.8 16.1 0.00 0.00 0.00 56 1003.7
20260505203558 31 215 6.4 17.7 0.00 0.00 0.00 54 1003.9
20260505203052 31 288 6.4 17.7 0.00 0.00 0.00 53 1004.0
20260505202534 31 222 6.4 20.9 0.00 0.00 0.00 54 1004.1
20260505202024 31 240 8.0 20.9 0.00 0.00 0.00 53 1004.1
20260505201516 31 247 9.7 25.7 0.00 0.00 0.00 55 1004.1
20260505201006 31 262 8.0 25.7 0.00 0.00 0.00 54 1004.1
20260505200458 31 174 6.4 24.1 0.00 0.00 0.00 56 1004.3
20260505200451 31 238 6.4 16.1 0.00 0.00 0.00 57 1004.3
20260505195444 31 224 8.0 22.5 0.00 0.00 0.00 56 1004.3
20260505194934 31 188 9.7 22.5 0.00 0.00 0.00 57 1004.3
20260505194418 31 199 8.0 20.9 0.00 0.00 0.00 57 1004.3
20260505193915 30 237 8.0 19.3 0.00 0.00 0.00 57 1004.2
20260505193909 30 216 9.7 25.7 0.00 0.00 0.00 58 1004.3
20260505192902 30 289 9.7 25.7 0.00 0.00 0.00 56 1004.4
20260505192857 30 272 9.7 22.5 0.00 0.00 0.00 58 1004.3
20260505192511 30 233 8.0 22.5 0.00 0.00 0.00 59 1004.3
20260505191348 30 151 6.4 20.9 0.00 0.00 0.00 61 1004.3
20260505190843 30 194 8.0 22.5 0.00 0.00 0.00 59 1004.3
20260505190838 30 182 9.7 22.5 0.00 0.00 0.00 60 1004.4
20260505185834 30 247 11.3 27.4 0.00 0.00 0.00 61 1004.3
20260505185334 30 234 11.3 27.4 0.00 0.00 0.00 60 1004.5
20260505184834 30 215 9.7 22.5 0.00 0.00 0.00 61 1004.4
20260505184331 30 209 11.3 29.0 0.00 0.00 0.00 61 1004.4
20260505183825 28 150 11.3 29.0 0.00 0.00 0.00 61 1004.6
20260505183319 29 238 9.7 25.7 0.00 0.00 0.00 62 1004.5
20260505182813 29 224 11.3 25.7 0.00 0.00 0.00 62 1004.6
20260505182808 28 190 9.7 27.4 0.00 0.00 0.00 64 1004.6
20260505182301 28 219 9.7 27.4 0.00 0.00 0.00 63 1004.7
20260505181905 28 238 9.7 27.4 0.00 0.00 0.00 63 1004.7
20260505181415 28 262 11.3 24.1 0.00 0.00 0.00 65 1004.7
20260505180251 28 186 11.3 24.1 0.00 0.00 0.00 64 1004.8
20260505175742 28 209 9.7 30.6 0.00 0.00 0.00 65 1004.9
20260505175231 28 213 9.7 30.6 0.00 0.00 0.00 63 1004.8
20260505175223 28 228 8.0 25.7 0.00 0.00 0.00 65 1004.9
20260505174212 28 208 8.0 25.7 0.00 0.00 0.00 63 1004.9
20260505173701 28 198 8.0 25.7 0.00 0.00 0.00 66 1004.8
20260505173151 27 178 9.7 24.1 0.00 0.00 0.00 66 1005.0
20260505172642 27 213 9.7 20.9 0.00 0.00 0.00 67 1004.9
20260505172633 27 185 9.7 25.7 0.00 0.00 0.00 67 1004.8
20260505171622 27 267 9.7 25.7 0.00 0.00 0.00 67 1004.8
20260505171111 27 276 8.0 24.1 0.00 0.00 0.00 67 1004.8
20260505170602 27 251 11.3 27.4 0.00 0.00 0.00 67 1004.9
20260505170052 27 162 9.7 27.4 0.00 0.00 0.00 66 1005.0
20260505165541 27 207 11.3 29.0 0.00 0.00 0.00 66 1005.0
20260505165532 27 234 11.3 29.0 0.00 0.00 0.00 66 1005.0
20260505164521 27 195 8.0 20.9 0.00 0.00 0.00 66 1005.0
20260505164512 27 207 9.7 25.7 0.00 0.00 0.00 66 1004.9
20260505163501 27 205 11.3 25.7 0.00 0.00 0.00 67 1004.8
20260505162948 27 201 11.3 25.7 0.00 0.00 0.00 68 1004.8
20260505162439 27 252 12.9 25.7 0.00 0.00 0.00 69 1004.7
20260505161929 27 201 12.9 25.7 0.00 0.00 0.00 69 1004.6
20260505161420 26 216 11.3 24.1 0.00 0.00 0.00 69 1004.6
20260505160902 26 184 9.7 30.6 0.00 0.00 0.00 70 1004.7
20260505160352 26 178 11.3 29.0 0.00 0.00 0.00 71 1004.6
20260505153244 25 257 12.9 32.2 0.00 0.00 0.00 73 1004.7
20260505152734 25 218 12.9 30.6 0.00 0.00 0.00 73 1004.6
20260505152224 25 213 12.9 33.8 0.00 0.00 0.00 72 1004.7
20260505151713 25 216 12.9 30.6 0.00 0.00 0.00 73 1004.8
20260505151706 25 293 11.3 30.6 0.00 0.00 0.00 73 1004.7
20260505151147 24 251 12.9 29.0 0.00 0.00 0.00 74 1004.8
20260505150751 24 226 11.3 30.6 0.00 0.00 0.00 75 1004.9
20260505130237 21 230 11.3 24.1 0.00 0.00 0.00 83 1004.5
20260505130228 21 204 9.7 24.1 0.00 0.00 0.00 83 1004.4
20260505124707 20 172 9.7 24.1 0.00 0.00 0.00 83 1004.2
20260505124157 20 303 8.0 22.5 0.00 0.00 0.00 83 1004.2
20260505123647 20 284 9.7 25.7 0.00 0.00 0.00 83 1004.0
20260505123137 20 240 8.0 24.1 0.00 0.00 0.00 83 1004.0
20260505122627 20 229 8.0 24.1 0.00 0.00 0.00 83 1004.1
20260505122117 20 227 8.0 24.1 0.00 0.00 0.00 83 1004.0
20260505121607 20 241 9.7 29.0 0.00 0.00 0.00 83 1003.8
20260505121057 20 203 9.7 29.0 0.00 0.00 0.00 83 1003.7
20260505120547 20 201 9.7 27.4 0.00 0.00 0.00 83 1003.7
20260505120037 20 213 9.7 27.4 0.00 0.00 0.00 83 1003.7
20260505115527 20 278 9.7 22.5 0.00 0.00 0.00 83 1003.8
20260505115017 20 199 11.3 29.0 0.00 0.00 0.00 83 1003.9
20260505115008 20 285 11.3 29.0 0.00 0.00 0.00 83 1003.8
20260505113957 20 203 11.3 29.0 0.00 0.00 0.00 82 1003.7
20260505113447 20 204 11.3 25.7 0.00 0.00 0.00 82 1003.6
20260505112939 20 178 11.3 25.7 0.00 0.00 0.00 82 1003.6
20260505112429 20 198 11.3 25.7 0.00 0.00 0.00 82 1003.7
20260505111919 20 196 9.7 25.7 0.00 0.00 0.00 82 1003.7
20260505111413 20 179 8.0 29.0 0.00 0.00 0.00 82 1003.7
20260505110905 20 186 9.7 29.0 0.00 0.00 0.00 82 1003.7
20260505110848 20 195 9.7 24.1 0.00 0.00 0.00 81 1003.6
20260505110452 20 164 8.0 22.5 0.00 0.00 0.00 82 1003.6
20260505101748 21 130 12.9 35.4 0.00 0.00 0.00 81 1003.4
20260505101243 21 176 12.9 35.4 0.00 0.00 0.00 81 1003.5
20260505100738 21 254 12.9 33.8 0.00 0.00 0.00 81 1003.6
20260505100234 21 249 11.3 33.8 0.00 0.00 0.00 81 1003.5
20260505095727 21 206 8.0 37.0 0.00 0.00 0.00 80 1003.6
20260505095224 21 224 9.7 37.0 0.00 0.00 0.00 80 1003.7
20260505094717 21 213 12.9 38.6 0.00 0.00 0.00 80 1003.7
20260505094208 21 192 11.3 38.6 0.00 0.00 0.00 80 1003.7
20260505093702 21 206 9.7 25.7 0.00 0.00 0.00 80 1003.8
20260505093151 21 208 11.3 30.6 0.00 0.00 0.00 80 1003.8
20260505092650 21 217 12.9 37.0 0.00 0.00 0.00 80 1003.9
20260505092144 21 166 11.3 37.0 0.00 0.00 0.00 80 1003.9
20260505091639 21 168 11.3 25.7 0.00 0.00 0.00 80 1004.0
20260505091133 21 154 11.3 22.5 0.00 0.00 0.00 80 1004.1
20260505090616 21 220 9.7 24.1 0.00 0.00 0.00 80 1004.1
20260505090108 21 184 9.7 25.7 0.00 0.00 0.00 80 1004.1
20260505085603 21 267 9.7 24.1 0.00 0.00 0.00 80 1004.1
20260505085054 21 209 9.7 24.1 0.00 0.00 0.00 80 1004.2
20260505084549 21 182 9.7 29.0 0.00 0.00 0.00 80 1004.1
20260505084539 21 182 11.3 30.6 0.00 0.00 0.00 80 1004.1
20260505083532 21 218 12.9 30.6 0.00 0.00 0.00 79 1004.1
20260505083023 21 210 12.9 30.6 0.00 0.00 0.00 79 1004.1
20260505082512 21 219 12.9 30.6 0.00 0.00 0.00 79 1004.1
20260505082002 21 209 12.9 32.2 0.00 0.00 0.00 79 1004.1
20260505081454 21 226 12.9 32.2 0.00 0.00 0.00 78 1004.2
20260505080944 21 213 14.5 37.0 0.00 0.00 0.00 78 1004.1
20260505080436 21 186 12.9 37.0 0.00 0.00 0.00 78 1004.2
20260505075927 21 186 11.3 30.6 0.00 0.00 0.00 78 1004.3
20260505075416 21 216 12.9 32.2 0.00 0.00 0.00 78 1004.3
20260505075408 21 156 12.9 32.2 0.00 0.00 0.00 78 1004.3
20260505074356 21 173 9.7 24.1 0.00 0.00 0.00 77 1004.5
20260505073846 21 153 11.3 27.4 0.00 0.00 0.00 77 1004.5
20260505073838 21 193 12.9 27.4 0.00 0.00 0.00 77 1004.6
20260505072826 21 201 14.5 33.8 0.00 0.00 0.00 77 1004.6
20260505072316 21 154 14.5 33.8 0.00 0.00 0.00 77 1004.8
20260505071806 21 208 12.9 29.0 0.00 0.00 0.00 76 1004.8
20260505071256 21 193 11.3 37.0 0.00 0.00 0.00 76 1004.9
20260505070745 21 181 12.9 37.0 0.00 0.00 0.00 76 1005.0
20260505070737 21 213 11.3 30.6 0.00 0.00 0.00 76 1005.1
20260505070217 22 211 12.9 30.6 0.00 0.00 0.00 75 1005.2
20260505065821 21 188 11.3 30.6 0.00 0.00 0.00 75 1005.1
20260505064659 22 203 12.9 30.6 0.00 0.00 0.00 75 1005.2
20260505064200 22 187 12.9 30.6 0.00 0.00 0.00 75 1005.3
20260505063650 22 205 12.9 32.2 0.00 0.00 0.00 74 1005.4
20260505063140 22 221 12.9 32.2 0.00 0.00 0.00 74 1005.4
20260505062630 22 161 14.5 30.6 0.00 0.00 0.00 73 1005.3
20260505062120 22 158 14.5 30.6 0.00 0.00 0.00 73 1005.4
20260505061610 22 184 12.9 29.0 0.00 0.00 0.00 73 1005.4
20260505061058 22 182 11.3 29.0 0.00 0.00 0.00 72 1005.4
20260505060548 22 166 11.3 25.7 0.00 0.00 0.00 72 1005.4